This is the latest recevied weather packets stored in our database for station/object E23XBQ-1. If no packets are shown the sender has not sent any weather packets the latest 10 day(s).
| Time | Temp. | Humidity | Pressure | Rain* | Wind** | Luminosity | Snow |
|---|---|---|---|---|---|---|---|
| 1777556470 | 25.56° C | 99% | 973 hPa | - | - | 0 W/m² | - |
| 1777555846 | 25.56° C | 99% | 972 hPa | - | - | 0 W/m² | - |
| 1777555221 | 25.56° C | 99% | 972 hPa | - | - | 0 W/m² | - |
| 1777554597 | 25.56° C | 99% | 972 hPa | - | - | 0 W/m² | - |
| 1777553972 | 25.56° C | 99% | 972 hPa | - | - | 0 W/m² | - |
| 1777553347 | 26.11° C | 99% | 972 hPa | - | - | 0 W/m² | - |
| 1777552723 | 26.11° C | 98% | 972 hPa | - | - | 0 W/m² | - |
| 1777552094 | 26.11° C | 96% | 972 hPa | - | - | 0 W/m² | - |
| 1777551460 | 26.11° C | 99% | 972 hPa | - | - | 0 W/m² | - |
| 1777550835 | 26.11° C | 97% | 971 hPa | - | - | 0 W/m² | - |
| 1777550211 | 26.11° C | 80% | 971 hPa | - | - | 0 W/m² | - |
| 1777549586 | 26.67° C | 73% | 971 hPa | - | - | 0 W/m² | - |
| 1777548962 | 26.67° C | 72% | 971 hPa | - | - | 0 W/m² | - |
| 1777548337 | 27.22° C | 80% | 971 hPa | - | - | 0 W/m² | - |
| 1777547712 | 27.78° C | 87% | 971 hPa | - | - | 0 W/m² | - |
| 1777547088 | 27.78° C | 99% | 970 hPa | - | - | 0 W/m² | - |
| 1777546463 | 28.33° C | 99% | 970 hPa | - | - | 0 W/m² | - |
| 1777545838 | 28.89° C | 91% | 970 hPa | - | - | 0 W/m² | - |
| 1777545214 | 29.44° C | 92% | 970 hPa | - | - | 0 W/m² | - |
| 1777544589 | 28.89° C | 78% | 970 hPa | - | - | 0 W/m² | - |
| 1777543965 | 28.89° C | 80% | 970 hPa | - | - | 0 W/m² | - |
| 1777543340 | 28.89° C | 89% | 970 hPa | - | - | 0 W/m² | - |
| 1777542715 | 27.78° C | 87% | 970 hPa | - | - | 0 W/m² | - |
| 1777542091 | 28.33° C | 93% | 970 hPa | - | - | 0 W/m² | - |
| 1777541466 | 28.33° C | 91% | 970 hPa | - | - | 0 W/m² | - |
* Rain since midnight (hover to see other rain measurements)
** Current wind speed in m/s (hover to see current wind gust speed)